N2ZVN Weather Reports


Display with metric or nautical units.
time (UTC)temp
F
wind
direction
speed
MPH
gust
MPH
rain 1hr
in
rain 24hr
in
rain mn
in
humidity
%
barometer
mb
20260504045227 55 248 4.0 4.0 0.00 0.00 0.00 45 1009.0
20260504044725 56 254 3.0 3.0 0.00 0.00 0.00 45 1008.9
20260504044222 56 262 5.0 6.0 0.00 0.00 0.00 45 1009.0
20260504043720 56 257 3.0 3.0 0.00 0.00 0.00 45 1009.0
20260504043216 56 249 6.0 9.0 0.00 0.00 0.00 44 1008.9
20260504042714 56 266 4.0 4.0 0.00 0.00 0.00 44 1009.0
20260504042210 56 233 2.0 3.0 0.00 0.00 0.00 45 1008.9
20260504041706 56 252 2.0 2.0 0.00 0.00 0.00 45 1008.9
20260504041202 55 235 6.0 8.0 0.00 0.00 0.00 45 1009.0
20260504040659 56 255 3.0 3.0 0.00 0.00 0.00 45 1009.1
20260504040156 56 255 3.0 3.0 0.00 0.00 0.00 45 1009.0
20260504035652 55 245 5.0 7.0 0.00 0.01 0.01 45 1008.9
20260504035150 55 268 4.0 3.0 0.00 0.01 0.01 45 1009.1
20260504034647 55 259 6.0 8.0 0.00 0.01 0.01 45 1008.9
20260504034144 55 234 3.0 3.0 0.00 0.01 0.01 47 1008.9
20260504033642 55 238 6.0 8.0 0.00 0.01 0.01 46 1008.9
20260504033139 55 238 6.0 8.0 0.00 0.01 0.01 46 1008.8
20260504032635 55 260 3.0 3.0 0.00 0.01 0.01 47 1008.8
20260504032133 55 227 3.0 3.0 0.00 0.01 0.01 46 1008.8
20260504031630 55 227 3.0 3.0 0.00 0.01 0.01 46 1008.8
20260504031126 55 239 5.0 6.0 0.00 0.01 0.01 46 1008.9
20260504030623 55 204 4.0 7.0 0.00 0.01 0.01 46 1009.0
20260504030119 55 241 4.0 4.0 0.00 0.01 0.01 47 1009.0
20260504025616 54 248 2.0 2.0 0.00 0.01 0.01 48 1009.2
20260504025113 54 267 3.0 4.0 0.00 0.01 0.01 48 1009.0
20260504024611 54 246 2.0 2.0 0.00 0.01 0.01 48 1008.9
20260504024107 54 246 2.0 2.0 0.00 0.01 0.01 51 1009.2
20260504023603 54 246 2.0 2.0 0.00 0.01 0.01 51 1009.2
20260504023059 54 246 2.0 2.0 0.00 0.01 0.01 51 1009.0
20260504022556 53 225 3.0 4.0 0.00 0.01 0.01 52 1009.4
20260504022052 53 225 3.0 4.0 0.00 0.01 0.01 52 1009.3
20260504021550 53 254 4.0 4.0 0.00 0.01 0.01 54 1009.2
20260504021046 53 251 3.0 6.0 0.00 0.01 0.01 58 1009.2
20260504020543 50 241 2.0 2.0 0.00 0.01 0.01 73 1009.2
20260504020040 50 241 2.0 2.0 0.00 0.01 0.01 73 1009.4
20260504015536 50 241 2.0 2.0 0.00 0.01 0.01 73 1009.4
20260504015032 49 293 0.0 0.0 0.00 0.01 0.01 89 1009.4
20260504014528 49 293 0.0 0.0 0.00 0.01 0.01 89 1009.4
20260504014026 49 293 0.0 0.0 0.00 0.01 0.01 89 1009.4
20260504013524 49 293 0.0 0.0 0.00 0.01 0.01 89 1009.5
20260504013020 49 293 0.0 0.0 0.00 0.01 0.01 89 1009.5
20260504012518 49 293 0.0 0.0 0.00 0.01 0.01 89 1009.6
20260504012016 49 293 0.0 0.0 0.00 0.01 0.01 89 1009.8
20260504011512 49 293 0.0 0.0 0.00 0.01 0.01 89 1009.6
20260504011008 48 293 0.0 0.0 0.00 0.01 0.01 91 1009.6
20260504010504 48 293 0.0 0.0 0.00 0.01 0.01 91 1009.4
20260504010000 48 293 0.0 0.0 0.00 0.01 0.01 91 1009.3
20260504005457 48 293 0.0 0.0 0.00 0.01 0.01 91 1009.6
20260504004954 48 293 0.0 0.0 0.00 0.01 0.01 91 1009.6
20260504004452 48 293 0.0 0.0 0.00 0.01 0.01 90 1009.7
20260504003949 49 293 0.0 0.0 0.00 0.01 0.01 90 1009.8
20260504003445 49 293 0.0 0.0 0.00 0.01 0.01 90 1009.9
20260504002942 49 293 0.0 0.0 0.00 0.01 0.01 89 1009.8
20260504002439 49 293 0.0 0.0 0.00 0.01 0.01 89 1009.9
20260504001936 49 293 0.0 0.0 0.00 0.01 0.01 88 1009.8
20260504001433 49 293 0.0 0.0 0.00 0.01 0.01 87 1009.9
20260504000930 49 293 1.0 1.0 0.00 0.01 0.01 85 1010.0
20260504000427 50 298 1.0 1.0 0.00 0.01 0.01 85 1010.0
20260503235924 50 304 0.0 0.0 0.05 0.01 0.01 84 1010.3
20260503235422 50 304 0.0 1.0 0.05 0.01 0.01 83 1010.3
20260503234919 50 304 0.0 1.0 0.00 0.00 0.00 81 1010.2
20260503234417 50 304 0.0 0.0 0.00 0.00 0.00 80 1010.4
20260503233915 50 304 0.0 1.0 0.00 0.00 0.00 79 1010.3
20260503233411 51 304 0.0 0.0 0.00 0.00 0.00 78 1010.3
20260503232907 51 304 0.0 1.0 0.00 0.00 0.00 75 1010.0
20260503232405 51 307 1.0 2.0 0.00 0.00 0.00 73 1010.2
20260503231902 51 309 2.0 2.0 0.00 0.00 0.00 71 1010.2
20260503231359 52 314 0.0 2.0 0.00 0.00 0.00 70 1010.1
20260503230855 52 166 4.0 7.0 0.00 0.00 0.00 66 1010.1
20260503230352 53 271 4.0 6.0 0.00 0.00 0.00 62 1010.2
20260503225850 53 218 4.0 6.0 0.00 0.00 0.00 59 1009.9
20260503225345 54 237 3.0 3.0 0.00 0.00 0.00 56 1010.0
20260503224842 54 240 3.0 3.0 0.00 0.00 0.00 55 1010.1
20260503224339 54 305 1.0 2.0 0.00 0.00 0.00 53 1009.8
20260503223837 54 263 2.0 3.0 0.00 0.00 0.00 52 1009.8
20260503223334 54 254 1.0 2.0 0.00 0.00 0.00 52 1009.8
20260503222830 54 247 3.0 7.0 0.00 0.00 0.00 51 1009.8
20260503222329 54 241 2.0 2.0 0.00 0.00 0.00 52 1009.6
20260503221826 54 252 4.0 4.0 0.00 0.00 0.00 50 1009.6
20260503221325 54 260 2.0 3.0 0.00 0.00 0.00 50 1009.7
20260503220821 54 246 2.0 4.0 0.00 0.00 0.00 50 1009.6
20260503220318 54 255 2.0 4.0 0.00 0.00 0.00 50 1009.8
20260503215814 54 232 4.0 4.0 0.00 0.00 0.00 49 1009.6
20260503215312 54 252 2.0 2.0 0.00 0.00 0.00 50 1009.5
20260503214809 54 235 2.0 4.0 0.00 0.00 0.00 49 1009.5
20260503214306 54 234 2.0 4.0 0.00 0.00 0.00 49 1009.6
20260503213804 54 260 3.0 3.0 0.00 0.00 0.00 47 1009.6
20260503213301 54 259 4.0 6.0 0.00 0.00 0.00 48 1009.4
20260503212758 54 247 2.0 2.0 0.00 0.00 0.00 47 1009.3
20260503212256 55 250 2.0 3.0 0.00 0.00 0.00 46 1009.6
20260503211753 55 243 3.0 7.0 0.00 0.00 0.00 45 1009.5
20260503211249 55 246 1.0 2.0 0.00 0.00 0.00 46 1009.4
20260503210744 55 247 2.0 3.0 0.00 0.00 0.00 45 1009.6
20260503210242 55 253 3.0 4.0 0.00 0.00 0.00 44 1009.5
20260503205742 55 251 2.0 7.0 0.00 0.00 0.00 44 1009.4
20260503205239 55 201 2.0 7.0 0.00 0.00 0.00 45 1009.5
20260503204735 55 252 2.0 3.0 0.00 0.00 0.00 43 1009.6
20260503204233 55 265 2.0 6.0 0.00 0.00 0.00 42 1009.5
20260503203731 56 231 5.0 7.0 0.00 0.00 0.00 41 1009.4
20260503203228 56 251 2.0 4.0 0.00 0.00 0.00 42 1010.0
20260503202725 56 232 4.0 9.0 0.00 0.00 0.00 41 1009.6
20260503202223 57 251 5.0 6.0 0.00 0.00 0.00 39 1009.8
20260503201720 57 252 2.0 6.0 0.00 0.00 0.00 41 1009.8
20260503201218 57 260 1.0 3.0 0.00 0.00 0.00 41 1009.9
20260503200714 57 243 3.0 6.0 0.00 0.00 0.00 39 1009.9
20260503200211 57 254 5.0 7.0 0.00 0.00 0.00 39 1010.0
20260503195707 57 214 2.0 7.0 0.00 0.00 0.00 38 1010.2
20260503195204 57 288 2.0 11.0 0.00 0.00 0.00 39 1010.4
20260503194701 57 263 7.0 8.0 0.00 0.00 0.00 37 1010.1
20260503194156 57 239 3.0 6.0 0.00 0.00 0.00 34 1010.4
20260503193653 58 261 2.0 7.0 0.00 0.00 0.00 35 1010.5
20260503193149 59 216 2.0 7.0 0.00 0.00 0.00 35 1010.5
20260503192645 58 237 2.0 4.0 0.00 0.00 0.00 36 1010.6
20260503192141 57 267 1.0 4.0 0.00 0.00 0.00 37 1010.7
20260503191638 57 257 4.0 9.0 0.00 0.00 0.00 35 1010.9
20260503191135 57 270 1.0 7.0 0.00 0.00 0.00 37 1011.0
20260503190632 57 263 3.0 8.0 0.00 0.00 0.00 38 1011.1
20260503190129 57 263 5.0 9.0 0.00 0.00 0.00 37 1011.2
20260503185625 57 252 1.0 6.0 0.00 0.00 0.00 37 1011.4
20260503185120 56 264 4.0 7.0 0.00 0.00 0.00 38 1011.4
20260503184616 56 258 10.0 14.0 0.00 0.00 0.00 35 1011.6
20260503184112 56 239 4.0 7.0 0.00 0.00 0.00 36 1011.4
20260503183609 56 243 6.0 8.0 0.00 0.00 0.00 35 1011.6
20260503183106 56 215 6.0 9.0 0.00 0.00 0.00 34 1011.7
20260503182605 56 234 6.0 7.0 0.00 0.00 0.00 36 1011.9
20260503182102 56 288 5.0 9.0 0.00 0.00 0.00 37 1011.8
20260503181559 56 229 2.0 3.0 0.00 0.00 0.00 38 1011.8
20260503181055 55 231 4.0 6.0 0.00 0.00 0.00 35 1012.0
20260503180553 56 262 2.0 6.0 0.00 0.00 0.00 36 1011.9
20260503180050 56 239 3.0 4.0 0.00 0.00 0.00 37 1012.0
20260503175547 56 246 6.0 7.0 0.00 0.00 0.00 36 1012.0
20260503175045 55 204 3.0 3.0 0.00 0.00 0.00 38 1012.0
20260503174542 56 257 1.0 6.0 0.00 0.00 0.00 41 1012.2
20260503174038 56 264 2.0 7.0 0.00 0.00 0.00 38 1012.2
20260503173533 55 290 2.0 3.0 0.00 0.00 0.00 38 1012.3
20260503173029 55 267 5.0 6.0 0.00 0.00 0.00 35 1012.4
20260503172527 55 309 2.0 3.0 0.00 0.00 0.00 39 1012.1
20260503172024 55 247 4.0 4.0 0.00 0.00 0.00 39 1012.3
20260503171521 54 216 2.0 4.0 0.00 0.00 0.00 38 1012.5
20260503171018 55 211 2.0 6.0 0.00 0.00 0.00 41 1012.5
20260503170514 54 272 1.0 3.0 0.00 0.00 0.00 48 1012.7
20260503150906 51 277 1.0 2.0 0.00 0.00 0.00 52 1013.7
20260503150403 51 268 4.0 6.0 0.00 0.00 0.00 50 1013.6
20260503131256 47 241 1.0 3.0 0.00 0.00 0.00 55 1014.7
20260503130754 47 225 1.0 3.0 0.00 0.00 0.00 54 1014.6
20260503130251 47 233 2.0 3.0 0.00 0.00 0.00 57 1014.8
20260503120217 44 225 2.0 2.0 0.00 0.00 0.00 49 1014.8
20260503110644 38 235 1.0 1.0 0.00 0.00 0.00 71 1014.6
20260503110142 37 234 1.0 1.0 0.00 0.00 0.00 70 1014.6
20260503100109 34 235 0.0 0.0 0.00 0.00 0.00 83 1014.4
20260503081458 36 236 1.0 1.0 0.00 0.00 0.00 80 1014.6
20260503080955 37 236 0.0 1.0 0.00 0.00 0.00 79 1014.6
20260503080451 37 236 0.0 0.0 0.00 0.00 0.00 78 1014.6
20260503072927 37 236 0.0 0.0 0.00 0.00 0.00 78 1014.5
20260503072425 37 236 0.0 1.0 0.00 0.00 0.00 79 1014.6
20260503071922 37 235 0.0 2.0 0.00 0.00 0.00 79 1014.5
20260503071419 37 234 0.0 0.0 0.00 0.00 0.00 80 1014.6
20260503070915 37 238 0.0 1.0 0.00 0.00 0.00 81 1014.6
20260503070412 37 238 0.0 0.0 0.00 0.00 0.00 80 1014.6
20260503060338 36 238 0.0 0.0 0.00 0.00 0.00 87 1014.8
20260503054826 37 238 0.0 0.0 0.00 0.00 0.00 88 1015.1
20260503054322 37 238 0.0 0.0 0.00 0.00 0.00 87 1014.8
20260503053820 37 238 0.0 0.0 0.00 0.00 0.00 85 1014.9
20260503053318 37 238 0.0 0.0 0.00 0.00 0.00 86 1015.1
20260503052814 37 238 0.0 0.0 0.00 0.00 0.00 85 1015.3
20260503052311 37 238 0.0 0.0 0.00 0.00 0.00 84 1015.0
20260503051807 38 238 0.0 0.0 0.00 0.00 0.00 85 1015.2
20260503051303 38 238 0.0 0.0 0.00 0.00 0.00 83 1015.1
20260503050800 39 238 0.0 0.0 0.00 0.00 0.00 80 1015.3
20260503050256 39 238 0.0 0.0 0.00 0.00 0.00 80 1015.5
20260503045754 39 238 0.0 0.0 0.00 0.00 0.00 77 1015.2